This is the latest recevied weather packets stored in our database for station/object N6SPP. If no packets are shown the sender has not sent any weather packets the latest 10 day(s).
| Time | Temp. | Humidity | Pressure | Rain* | Wind** | Luminosity | Snow |
|---|---|---|---|---|---|---|---|
| 1778120108 | 20.56° C | 70% | 1019.4 hPa | 0 mm | - | 39 W/m² | - |
| 1778119800 | 21.11° C | 68% | 1019.4 hPa | 0 mm | - | 43 W/m² | - |
| 1778119497 | 21.11° C | 67% | 1019.3 hPa | 0 mm | - | 42 W/m² | - |
| 1778119193 | 21.67° C | 66% | 1019.3 hPa | 0 mm | - | 58 W/m² | - |
| 1778118892 | 22.22° C | 63% | 1019.3 hPa | 0 mm | - | 65 W/m² | - |
| 1778118589 | 22.78° C | 62% | 1019.3 hPa | 0 mm | - | 49 W/m² | - |
| 1778118286 | 22.78° C | 62% | 1019.4 hPa | 0 mm | - | 78 W/m² | - |
| 1778117981 | 22.78° C | 62% | 1019.2 hPa | 0 mm | - | 91 W/m² | - |
| 1778117678 | 22.78° C | 61% | 1019.1 hPa | 0 mm | - | 103 W/m² | - |
| 1778117376 | 22.78° C | 61% | 1019 hPa | 0 mm | - | 113 W/m² | - |
| 1778117072 | 22.78° C | 62% | 1019.4 hPa | 0 mm | - | 123 W/m² | - |
| 1778116768 | 23.33° C | 60% | 1019.2 hPa | 0 mm | - | 138 W/m² | - |
| 1778116466 | 23.89° C | 59% | 1019.3 hPa | 0 mm | - | 152 W/m² | - |
| 1778116160 | 23.33° C | 60% | 1019.5 hPa | 0 mm | - | 137 W/m² | - |
| 1778115856 | 23.89° C | 59% | 1019.5 hPa | 0 mm | - | 166 W/m² | - |
| 1778115553 | 23.89° C | 59% | 1019.3 hPa | 0 mm | - | 192 W/m² | - |
| 1778115250 | 23.89° C | 58% | 1019.3 hPa | 0 mm | - | 185 W/m² | - |
| 1778114946 | 23.89° C | 57% | 1019.5 hPa | 0 mm | - | 195 W/m² | - |
| 1778114643 | 23.89° C | 56% | 1019.3 hPa | 0 mm | - | 234 W/m² | - |
| 1778114341 | 24.44° C | 55% | 1019.2 hPa | 0 mm | - | 247 W/m² | - |
| 1778114036 | 25° C | 55% | 1019.4 hPa | 0 mm | - | 262 W/m² | - |
| 1778113731 | 25° C | 53% | 1019.5 hPa | 0 mm | - | 276 W/m² | - |
| 1778113428 | 25° C | 54% | 1019.5 hPa | 0 mm | - | 283 W/m² | - |
| 1778113125 | 24.44° C | 54% | 1019.2 hPa | 0 mm | - | 71 W/m² | - |
| 1778112821 | 24.44° C | 54% | 1019.3 hPa | 0 mm | - | 158 W/m² | - |
* Rain latest hour (hover to see other rain measurements)
** Current wind speed in m/s (hover to see current wind gust speed)